Theta_e
306 307 307 307 307 307 306 306 306 306 307 307 308 308 308 308 310 310 311 312 315 318 318 319 320 321 321 321 321 320 321 320 320 321 321 321 321 322 322 321 322 322 322 322 322 322 322 322 322 322 321 321 320 320 320 321 321 320 320 320 319 319
306 306 306 307 306 304 304 304 303 304 304 305 305 306 306 306 307 308 309 311 313 316 316 317 319 320 321 321 321 321 320 320 320 320 320 321 321 322 321 321 321 321 321 321 321 321 321 321 322 322 321 321 321 320 320 320 320 320 320 320 321 321
306 305 306 306 304 303 302 303 303 303 303 303 303 304 304 305 306 306 307 308 311 311 313 316 317 318 320 320 320 321 321 320 319 320 321 319 321 320 320 320 321 321 321 321 320 321 321 321 321 322 321 321 320 321 320 320 320 319 319 319 320 321
304 304 303 302 302 303 303 303 303 302 303 302 302 302 303 303 304 305 306 306 308 309 311 314 315 318 317 319 319 319 319 319 319 320 319 320 320 320 321 321 321 321 321 321 321 321 321 322 322 321 321 320 320 319 321 320 319 318 319 319 318 319
302 303 302 301 303 303 303 303 303 303 302 302 302 302 302 302 303 304 305 306 307 309 311 312 314 315 315 317 317 316 317 318 318 318 319 319 318 319 320 320 320 320 320 320 320 321 320 321 321 321 320 320 319 319 319 320 318 318 318 318 318 318
301 302 302 303 303 304 304 304 303 302 302 302 301 301 301 301 302 303 304 305 307 307 309 310 311 311 312 313 316 314 314 316 316 317 317 318 317 318 319 319 320 319 319 319 318 318 319 318 318 318 319 320 318 318 319 318 318 319 318 318 318 318
300 301 302 303 304 304 304 304 304 303 302 302 302 301 301 301 301 301 301 302 302 303 304 305 306 307 307 309 309 309 309 311 314 316 316 315 316 317 316 317 316 317 317 318 318 318 317 317 317 318 318 318 318 318 318 318 318 319 319 319 319 312
300 300 301 302 303 304 305 304 303 302 302 302 302 301 300 299 299 299 299 298 299 299 300 301 302 304 304 305 306 307 308 311 311 313 315 315 317 314 314 315 314 315 314 314 315 315 316 315 314 315 316 316 316 317 317 317 318 319 319 319 319 318
301 301 302 303 302 303 304 303 303 302 301 301 301 299 298 298 298 297 297 297 297 297 298 299 300 302 303 303 303 304 305 306 306 307 308 307 308 308 308 307 309 308 310 313 313 315 315 315 313 315 315 315 315 315 315 315 315 316 318 318 318 318
302 302 303 303 303 304 303 301 301 301 301 300 300 298 299 300 298 296 296 296 296 296 296 297 298 300 301 301 301 302 302 302 302 303 304 303 305 305 305 306 310 308 308 311 311 314 313 313 314 314 314 315 315 314 314 314 314 315 316 316 316 316
305 305 305 305 302 300 300 300 300 299 298 300 298 297 298 297 296 296 296 296 296 296 296 297 298 300 298 298 298 298 298 299 299 300 301 301 304 308 306 304 305 306 308 309 309 309 308 311 313 314 313 312 312 314 315 315 315 314 314 315 315 315
304 304 304 302 301 301 301 300 300 299 299 299 299 297 297 296 295 295 295 295 295 295 296 298 298 298 298 297 297 296 295 296 296 296 297 298 298 299 301 300 300 302 304 306 307 308 310 311 314 305 303 304 311 312 314 313 313 313 313 313 313 313
304 304 302 300 301 301 301 301 301 300 298 297 297 298 297 296 295 295 294 294 294 295 296 296 296 296 296 295 295 295 295 295 295 295 295 295 295 297 296 296 299 300 301 303 306 308 310 312 312 304 305 304 303 308 313 313 313 313 313 313 313 312
304 303 300 300 299 298 297 298 297 297 297 297 297 296 295 295 295 295 294 294 295 295 296 295 294 294 292 293 293 292 292 292 292 292 293 293 293 294 293 295 297 298 299 301 302 303 305 307 302 303 303 303 304 302 309 313 314 314 314 314 313 313
302 302 300 298 298 297 297 296 295 295 295 295 296 295 294 295 295 295 295 294 295 294 295 295 295 293 292 292 292 291 291 291 290 290 290 291 291 289 291 293 294 295 295 297 298 299 301 303 300 302 301 301 301 302 303 311 312 312 313 313 313 312
300 299 297 296 296 296 296 295 295 295 294 295 294 294 293 294 293 294 294 294 294 294 294 294 293 292 291 291 290 290 290 289 291 290 290 290 289 289 290 289 290 291 292 294 295 296 297 299 298 299 300 300 300 300 300 307 310 311 311 311 312 312
298 295 294 295 296 295 293 293 294 293 293 294 294 293 294 294 293 292 293 292 292 292 292 292 291 291 291 290 289 289 289 289 290 290 291 291 290 290 291 290 289 290 290 291 292 293 294 296 296 298 298 299 299 299 299 305 306 308 309 310 310 310
295 294 294 295 294 293 292 293 293 292 292 291 293 293 293 294 294 294 293 293 291 291 291 292 290 290 289 289 289 289 289 288 289 290 290 289 288 289 288 288 288 290 290 290 290 291 292 293 295 295 296 297 298 298 300 302 304 305 306 307 308 308
294 294 293 294 293 293 293 293 292 291 290 290 291 289 290 291 292 293 293 293 291 291 291 291 291 290 290 289 290 290 290 290 290 289 289 289 289 288 288 289 289 289 289 289 289 290 291 291 292 294 295 295 296 297 299 301 301 302 303 304 304 305
293 293 293 292 292 291 292 292 292 291 289 290 289 288 288 288 289 290 291 292 292 292 291 290 290 289 289 288 289 289 289 289 289 289 289 288 289 290 290 289 290 289 288 289 290 289 290 291 290 293 294 294 295 295 298 299 299 299 299 299 300 302
291 292 291 290 290 292 291 291 290 289 289 288 288 287 287 288 288 289 289 290 291 291 291 291 290 290 289 288 288 288 288 288 288 288 287 287 288 289 289 289 289 289 289 288 289 288 289 290 290 292 293 293 294 293 295 296 297 296 297 298 298 299
290 289 289 289 291 291 290 290 289 288 288 288 287 287 287 288 289 289 289 288 288 289 290 290 290 289 288 288 288 288 288 288 288 288 288 288 288 288 288 287 288 288 289 288 288 288 289 289 290 289 292 293 293 294 293 295 294 294 295 295 296 296
289 289 291 291 291 289 289 290 288 287 287 287 287 287 288 288 288 288 288 287 287 288 288 288 288 288 287 287 288 288 287 287 287 287 287 287 287 287 287 287 287 287 288 288 288 288 288 288 289 289 291 292 293 294 293 293 294 294 294 294 294 295
288 287 287 288 288 288 288 288 288 286 286 286 286 286 287 287 287 286 286 286 287 288 288 287 288 287 288 287 287 287 286 286 286 287 286 286 286 287 287 287 287 287 288 288 288 288 288 288 288 288 289 291 292 293 293 292 292 293 293 293 293 295
286 287 287 287 287 286 287 287 286 285 285 286 286 286 286 287 286 286 286 286 286 286 287 287 286 287 287 287 287 286 287 286 285 285 284 285 286 286 286 286 286 287 287 288 289 288 288 288 288 288 288 289 291 292 293 293 292 293 292 293 292 294
285 285 285 285 285 285 285 287 286 285 284 285 286 285 285 286 287 286 285 284 284 285 286 286 286 286 286 286 286 285 285 286 286 285 286 286 286 286 287 287 287 286 287 287 289 289 288 288 288 287 288 288 290 292 292 293 293 293 291 291 292 294
285 284 284 283 284 284 284 285 286 284 283 284 284 285 285 286 285 285 284 284 284 285 286 285 285 286 286 286 286 286 286 286 285 286 286 284 286 285 286 287 287 286 287 287 288 289 289 289 287 288 288 288 289 291 292 292 292 293 292 291 291 291
284 283 283 282 283 283 284 284 285 284 285 284 284 284 284 284 284 284 284 283 284 285 286 285 285 286 286 286 286 286 286 286 286 286 287 285 285 286 286 287 286 286 286 286 288 288 289 289 288 288 288 287 287 288 289 290 291 290 290 289 290 290
283 282 282 282 282 283 283 283 283 284 284 284 284 284 283 282 283 283 284 285 286 285 285 286 286 287 287 286 286 287 287 286 287 287 287 287 286 286 286 286 286 286 286 286 287 288 288 288 288 287 287 287 286 286 287 287 288 288 288 288 289 289
281 281 281 282 281 282 282 283 282 284 284 283 283 283 282 283 282 283 282 284 285 285 285 285 286 286 286 286 287 287 287 286 287 287 287 287 286 286 287 287 287 287 287 287 288 288 288 288 288 287 287 287 286 286 285 287 287 288 289 289 289 289
280 280 280 281 281 281 281 281 282 283 283 284 283 282 282 284 283 281 281 282 283 284 285 286 286 285 286 286 287 286 287 287 287 287 287 288 286 287 287 288 288 288 287 287 287 287 287 288 288 288 288 287 288 287 286 286 286 287 287 288 290 289
280 280 280 281 281 281 281 281 282 282 282 281 281 281 282 284 283 281 282 283 282 283 284 285 285 285 285 285 286 286 287 287 287 288 288 288 287 287 288 289 289 289 287 287 288 288 288 288 290 291 291 290 290 290 290 290 290 290 289 289 290 289
280 280 279 281 281 281 280 281 281 281 280 281 281 281 282 280 282 282 282 283 282 283 284 284 284 284 284 285 285 285 286 287 288 288 288 288 288 288 288 288 289 289 289 288 288 289 290 289 290 290 290 290 290 290 290 290 290 290 290 291 289 288
279 279 280 280 280 279 280 280 280 280 281 280 280 280 281 281 282 283 283 282 282 283 283 283 284 284 284 284 284 284 284 285 285 287 288 288 288 288 288 288 288 288 288 289 288 288 288 289 289 289 289 289 289 289 289 289 290 290 290 291 291 289
280 280 280 280 280 280 280 280 281 280 280 280 281 281 281 282 282 283 282 282 283 283 284 284 283 284 284 284 284 284 284 284 284 284 285 287 288 289 288 288 288 288 288 288 288 288 288 288 289 289 289 289 289 289 289 289 290 290 291 291 289 288
279 279 280 280 280 280 280 280 280 279 282 281 282 282 282 282 281 281 282 282 283 283 283 283 283 283 284 284 284 284 284 284 284 284 284 284 285 286 287 288 288 288 288 288 288 288 288 288 288 288 288 288 288 288 288 288 288 289 291 290 288 288
279 279 280 281 281 281 281 280 280 281 281 281 282 281 279 279 280 281 283 284 284 283 283 283 283 283 283 283 283 283 283 283 283 284 284 283 283 283 284 285 287 287 288 288 288 288 288 288 288 288 288 288 288 288 289 289 287 286 287 288 288 288
278 278 279 280 279 280 280 280 280 280 279 278 277 278 280 281 281 281 282 282 283 283 283 283 283 283 283 283 283 283 283 283 283 283 283 283 284 283 284 284 286 287 286 287 287 287 287 288 288 288 288 288 288 288 288 286 286 286 287 287 288 288
Wind_Speed
1 1 1 1 1 3 3 4 4 4 4 4 4 5 5 5 4 5 6 5 5 5 6 7 7 7 7 6 6 6 6 7 7 7 7 5 6 6 6 6 7 8 8 8 8 8 9 9 9 9 9 9 9 9 10 10 10 10 11 10 10 9
1 0 0 0 2 4 4 4 3 3 4 4 4 4 4 4 5 4 4 5 4 4 4 5 5 5 6 6 6 7 7 7 6 6 6 7 6 6 6 6 7 7 8 8 8 8 9 9 10 10 10 10 11 10 10 11 12 13 13 12 11 10
0 0 0 1 2 3 3 2 2 3 3 4 4 4 4 4 5 5 5 4 4 4 5 5 5 5 5 6 6 7 7 6 6 6 6 5 7 6 6 6 7 7 8 8 9 9 9 10 11 10 10 11 11 12 12 12 13 14 13 12 13 13
1 1 1 2 2 2 1 0 0 1 1 3 3 3 4 4 4 4 4 4 4 4 4 5 4 5 4 5 6 7 6 5 6 6 5 7 7 6 7 8 7 7 8 8 9 10 11 11 11 11 10 11 12 12 11 12 14 14 14 13 14 14
3 2 2 3 2 2 1 0 0 1 1 1 2 2 4 4 4 4 3 4 5 5 5 4 4 5 5 6 5 6 6 6 6 6 7 7 7 7 8 8 8 8 8 9 10 10 11 12 12 11 11 12 13 14 13 13 13 14 15 15 15 14
1 2 2 3 3 1 1 0 0 1 1 1 1 2 3 3 3 3 3 4 4 4 3 4 4 4 5 6 6 6 6 6 6 6 7 7 7 8 8 8 8 8 9 10 10 10 11 11 11 10 10 12 12 13 14 13 13 14 14 15 14 13
2 2 3 3 2 1 0 0 0 1 1 1 1 1 2 2 2 2 3 2 3 4 4 4 4 4 5 5 4 5 5 5 5 6 6 7 7 7 8 8 7 8 8 9 10 10 10 10 9 10 10 11 11 12 12 12 13 13 14 14 14 13
4 4 4 4 4 1 0 0 0 1 1 1 1 0 1 2 1 1 2 2 2 3 4 4 4 4 4 4 4 5 5 5 5 7 6 6 7 6 6 7 7 7 7 7 7 8 8 7 7 9 10 11 10 11 11 11 12 13 13 13 13 13
5 6 6 6 4 1 1 1 1 1 1 1 1 1 0 0 0 1 1 2 2 2 3 3 3 3 3 3 4 3 3 4 4 4 5 5 5 5 5 5 5 5 6 7 8 9 9 9 8 10 10 10 10 11 11 11 11 12 11 12 12 12
6 6 7 5 3 1 1 1 1 1 1 1 1 1 0 0 0 1 2 2 2 2 3 3 2 1 1 1 1 2 2 3 4 4 4 3 4 4 5 5 6 6 6 7 8 9 8 9 9 9 10 10 11 10 11 11 11 11 11 11 11 11
6 4 1 1 2 3 1 1 1 3 3 1 3 2 0 0 0 1 2 1 1 2 2 2 1 0 1 2 2 3 4 4 4 4 4 4 5 5 5 4 4 5 6 7 6 7 6 7 9 8 8 8 8 9 10 10 10 10 11 11 10 10
2 1 1 2 4 1 0 1 2 2 1 2 1 2 0 0 1 1 1 1 2 2 2 1 1 1 1 1 2 3 3 3 4 4 4 4 4 4 5 5 5 5 6 6 7 7 7 8 7 7 11 10 8 7 8 7 8 9 9 10 10 10
1 0 2 4 2 2 3 2 1 1 1 2 1 1 1 0 1 1 1 2 3 2 1 1 2 2 2 3 3 3 3 4 4 3 4 4 4 5 5 4 5 6 6 8 8 9 9 10 10 14 14 14 15 11 10 10 10 9 9 10 10 11
1 1 4 3 4 5 3 2 2 2 3 2 2 2 2 1 1 1 2 3 3 2 1 1 1 2 3 3 4 4 4 4 4 4 4 4 5 5 4 5 6 7 6 7 8 9 10 10 12 13 15 16 17 15 12 12 12 12 12 12 13 13
2 5 4 5 4 4 2 2 2 2 3 4 3 2 2 1 1 1 1 1 1 2 1 1 2 3 3 4 4 3 3 3 4 4 5 6 6 5 5 6 6 7 6 7 9 10 9 10 11 14 16 15 15 16 15 12 13 12 13 12 12 12
6 6 5 4 3 3 2 3 2 1 2 2 3 2 3 2 2 1 1 1 1 1 2 1 2 3 4 4 4 4 4 4 5 5 5 5 5 5 6 5 7 7 7 8 9 10 9 9 10 14 15 15 15 15 13 11 12 12 13 13 12 12
6 5 5 3 2 3 4 2 2 1 2 1 1 1 2 3 4 4 3 3 3 4 4 4 4 4 4 5 5 5 5 5 5 5 6 6 6 7 8 7 6 7 6 7 8 9 10 9 12 14 15 15 15 14 12 11 11 11 12 12 12 12
7 6 5 2 4 5 4 1 1 2 2 2 1 1 2 2 2 3 4 5 5 5 5 5 5 4 5 5 5 5 5 5 5 6 6 4 5 6 5 6 5 8 8 7 7 9 12 8 11 15 15 15 14 13 10 9 10 12 12 12 11 12
6 5 4 2 4 5 2 1 1 1 1 1 1 2 1 2 3 3 3 3 4 4 5 5 5 5 5 5 6 6 6 7 7 5 4 6 6 7 6 7 7 7 7 8 7 9 12 10 8 13 13 12 14 12 10 9 10 11 12 12 10 11
4 3 3 4 5 4 2 1 0 0 1 1 1 2 3 3 3 2 2 2 3 3 3 3 3 4 5 5 6 7 7 7 6 6 5 6 8 9 7 7 8 7 5 7 9 7 11 13 6 10 11 12 12 11 10 9 10 11 10 10 10 11
4 3 3 4 3 1 1 0 0 1 1 1 2 2 2 3 2 3 3 3 2 3 2 2 2 3 3 4 5 5 6 7 7 7 5 6 6 8 8 7 8 9 8 6 9 10 11 13 9 8 11 11 11 9 8 9 8 11 11 10 12 11
4 4 3 2 1 1 0 0 1 1 1 2 1 2 2 2 3 2 2 2 3 2 2 2 2 3 4 4 5 4 5 5 6 6 6 6 6 7 6 6 7 9 10 7 7 9 8 10 11 5 10 10 11 12 9 7 8 11 11 10 11 11
4 3 1 0 0 1 1 1 1 1 1 1 2 3 3 3 4 4 4 4 3 4 4 4 3 4 4 4 4 4 4 4 5 5 5 7 6 6 7 6 7 8 11 9 7 9 9 7 10 8 9 11 11 12 11 8 10 10 10 11 11 11
2 2 1 1 0 1 1 1 0 1 1 1 2 4 3 3 4 4 4 4 5 5 6 6 6 5 5 5 4 4 5 4 4 5 5 6 6 7 8 7 7 8 10 10 8 8 9 8 10 10 9 12 13 13 14 10 10 9 9 12 12 12
2 1 0 1 1 2 1 1 0 1 1 2 5 4 3 3 3 2 3 4 5 5 6 7 7 8 6 7 6 6 7 5 5 5 4 5 5 6 7 7 6 8 10 10 9 7 8 8 7 11 9 11 14 14 15 16 13 13 11 11 14 13
2 1 0 0 1 2 2 0 2 2 1 5 6 4 3 3 2 2 3 3 4 5 6 6 6 7 6 7 7 6 7 8 6 5 4 5 5 7 8 7 5 6 8 10 11 10 7 6 7 7 11 10 13 14 16 16 17 16 12 11 13 11
0 1 1 2 2 3 2 1 1 3 3 4 3 4 4 3 2 2 3 3 4 4 5 5 5 6 6 6 6 7 8 7 6 8 5 4 6 6 8 9 7 7 9 9 11 12 11 7 5 6 8 12 13 14 15 16 17 16 17 14 12 11
0 0 1 3 2 2 3 4 2 3 5 4 4 4 3 3 3 4 4 3 3 4 5 5 5 5 6 6 6 6 6 7 7 7 8 5 6 7 7 9 8 8 7 8 10 11 11 10 6 7 6 7 9 9 12 15 15 15 16 16 15 16
1 1 1 1 3 3 4 4 4 4 5 5 5 5 4 4 4 4 4 5 5 5 6 6 6 6 5 5 6 5 6 6 6 7 8 6 7 7 8 8 8 9 8 9 10 10 10 11 8 7 7 6 6 6 6 7 8 10 12 11 10 12
2 3 3 2 3 3 3 3 4 5 5 5 5 5 5 5 5 5 4 5 5 5 5 6 7 8 7 6 6 7 6 6 6 8 9 8 7 8 10 9 9 9 8 10 10 10 10 12 10 7 7 7 6 6 5 5 5 5 5 7 8 9
2 3 4 5 4 4 4 4 4 5 5 5 5 5 5 5 5 4 4 4 4 5 4 5 6 6 7 7 6 6 7 7 7 8 10 8 7 8 9 11 11 10 7 8 10 10 11 12 13 8 6 5 5 4 6 6 6 6 6 9 12 10
2 3 3 4 4 4 4 5 5 5 5 5 5 4 5 6 5 4 5 4 5 6 7 7 7 7 7 7 8 9 8 9 12 11 9 11 8 15 18 15 12 11 7 9 10 8 10 13 14 10 10 14 15 15 14 13 13 12 10 9 12 10
2 2 2 4 4 4 5 5 5 5 5 5 5 4 5 5 5 5 5 5 5 6 7 7 8 7 7 7 8 8 10 13 8 13 17 17 16 15 17 18 21 21 18 13 14 14 16 20 23 21 18 17 17 16 15 14 13 14 14 13 8 8
4 4 4 4 4 4 4 4 4 4 4 4 5 4 5 5 5 7 6 5 6 6 6 6 7 8 8 8 7 7 9 9 12 15 9 14 17 15 16 18 19 19 19 19 18 16 14 15 17 20 19 17 16 15 14 14 14 14 13 13 12 11
4 3 3 2 2 1 1 2 4 4 4 5 5 5 5 5 6 7 6 6 7 8 8 7 7 7 7 8 8 8 6 8 10 11 18 14 10 15 17 16 17 18 19 19 19 21 20 21 19 18 20 19 18 17 17 17 16 13 13 12 10 10
4 4 4 5 5 4 2 2 4 4 5 5 6 5 6 6 6 6 6 6 7 9 9 7 7 7 8 6 7 8 8 9 8 11 12 14 19 16 12 15 16 17 18 18 19 19 19 20 21 21 20 20 19 18 17 15 13 13 14 13 11 9
6 6 6 8 8 6 5 5 5 5 5 5 5 5 4 4 5 6 8 11 9 8 9 8 7 7 8 8 8 8 9 10 10 9 11 12 13 14 17 18 13 9 13 13 12 14 17 19 20 20 20 19 18 17 16 13 10 9 8 9 11 11
7 7 8 8 8 8 6 5 4 4 4 5 5 5 6 7 7 7 7 7 8 8 8 8 8 7 8 9 9 9 10 11 10 10 11 11 11 12 15 16 15 12 8 15 17 17 15 18 19 19 19 18 17 15 11 9 10 9 10 9 9 9
Wind_Direction
29 57 350 323 334 331 320 314 315 312 300 275 254 255 253 252 250 242 243 236 231 223 221 214 212 211 209 209 206 201 205 211 209 210 215 213 207 203 205 195 197 201 200 200 204 206 211 214 215 213 214 211 217 219 225 226 226 228 231 233 233 235
87 115 274 294 300 296 285 273 281 287 275 285 284 279 273 277 283 283 261 244 232 239 232 229 218 211 207 201 197 205 210 213 205 208 211 213 205 207 199 198 201 198 198 200 202 205 208 210 212 208 210 209 213 213 218 221 222 226 229 230 229 232
190 234 212 262 271 274 270 259 255 254 260 277 278 270 271 263 252 258 267 273 266 248 235 229 220 217 203 201 199 202 212 211 207 209 209 199 211 200 201 206 207 202 199 200 205 208 210 211 213 212 211 212 215 216 217 219 221 225 229 229 231 230
196 226 308 299 279 291 305 277 315 305 283 268 271 282 274 261 270 248 251 260 260 262 247 235 222 213 207 202 206 209 210 205 204 209 205 207 211 195 205 207 207 204 202 204 209 213 215 215 215 214 212 215 217 218 216 220 221 225 228 225 230 228
187 196 223 251 254 278 293 274 199 259 262 276 281 272 273 256 246 249 238 227 236 246 248 236 225 211 209 208 212 210 208 207 207 200 205 211 210 207 205 210 208 204 204 210 213 214 217 217 219 216 213 216 219 220 220 220 219 222 225 225 229 228
200 190 236 250 257 261 308 255 213 237 246 243 243 270 278 281 268 261 264 261 248 243 246 247 243 225 218 211 216 212 211 209 208 207 208 211 207 212 217 211 210 206 208 212 216 216 217 218 219 219 220 223 222 225 227 226 226 226 228 229 231 230
187 230 226 239 261 261 184 109 210 245 256 239 230 264 270 268 282 294 286 278 275 281 271 261 250 232 236 230 227 224 224 219 217 216 217 215 219 218 215 223 214 214 214 218 220 222 223 223 219 221 225 227 227 227 228 227 228 229 231 231 231 228
189 217 239 243 242 222 162 158 237 259 237 245 190 193 287 296 300 288 306 307 296 287 285 280 287 274 257 244 238 231 224 224 223 225 229 218 226 229 226 221 227 222 228 229 232 231 234 231 225 224 226 227 230 234 235 235 234 234 233 234 232 231
197 215 222 224 225 189 148 127 313 291 242 251 214 181 171 252 284 272 234 257 259 277 280 282 269 260 268 272 272 286 290 279 266 254 249 249 243 242 247 250 245 247 235 239 236 235 232 230 224 226 227 229 229 232 235 237 238 238 239 236 233 233
213 210 220 226 222 154 118 79 20 344 271 242 193 173 139 210 202 251 242 224 245 244 253 253 257 278 284 315 345 346 330 326 319 299 293 303 288 277 267 256 248 251 245 245 242 243 238 237 234 230 229 229 230 231 235 234 236 238 239 240 238 235
192 198 197 268 129 112 119 48 4 19 11 356 177 130 143 206 197 265 260 251 235 248 246 252 255 23 360 344 337 322 308 300 292 295 297 294 283 274 272 276 280 280 274 273 268 270 263 253 247 242 238 239 242 237 240 239 240 239 240 241 240 236
186 188 243 97 120 145 170 76 49 24 6 12 122 121 219 150 247 245 283 279 270 262 255 261 311 285 263 263 256 256 259 265 274 278 282 276 275 286 292 300 294 285 275 278 277 271 267 260 257 256 257 246 238 243 247 247 244 241 242 244 244 241
192 208 104 121 95 57 65 68 45 7 11 26 46 46 284 209 279 280 268 283 276 266 250 217 248 249 263 262 259 263 265 264 265 273 276 276 279 278 280 282 277 264 261 261 262 262 256 254 251 251 253 251 247 246 251 252 252 246 246 246 243 244
194 119 126 108 85 73 67 34 353 5 5 2 20 325 313 314 267 279 294 288 306 312 289 257 251 250 264 271 260 258 257 258 265 274 273 279 279 273 282 277 265 268 263 263 262 259 259 260 259 255 252 247 245 243 247 253 253 252 250 248 246 247
121 122 106 91 86 84 67 71 46 357 332 344 310 343 1 330 314 304 310 305 317 324 330 329 328 305 309 295 282 274 278 273 283 283 281 270 259 267 263 256 259 259 262 260 265 263 261 262 260 258 257 252 246 241 236 244 246 249 249 246 244 245
110 103 112 112 110 114 111 98 87 325 302 298 330 358 337 15 339 347 316 336 331 329 330 338 340 328 312 313 315 311 300 296 280 273 268 275 282 266 267 263 256 257 253 251 253 260 259 258 262 259 261 260 254 249 242 245 247 246 249 251 251 250
117 117 99 102 120 115 84 39 27 341 349 340 2 338 357 348 352 350 352 5 357 14 11 13 359 344 330 330 327 325 314 297 294 295 286 279 271 269 268 268 268 259 254 255 255 262 263 257 253 253 253 254 255 254 247 250 250 250 251 249 248 252
140 140 145 158 122 112 100 83 6 28 319 353 88 24 3 20 20 15 16 14 9 6 360 3 354 348 344 338 337 335 321 312 295 297 293 280 272 264 269 275 260 270 268 260 259 264 267 263 253 257 260 261 259 255 253 250 249 252 251 250 247 247
133 149 137 125 125 118 115 141 42 13 337 5 351 45 24 69 64 50 40 24 6 358 353 354 351 344 344 342 340 332 326 323 318 309 301 305 294 288 282 272 268 262 266 271 259 262 271 270 249 254 260 262 264 264 263 255 251 251 252 252 252 251
106 97 108 95 114 141 149 141 66 21 12 351 355 31 7 42 29 33 34 14 354 351 349 346 354 343 331 338 331 321 317 313 307 305 311 310 308 306 297 293 294 280 263 269 273 257 274 281 252 245 256 258 254 249 256 260 263 262 256 260 254 251
120 109 77 81 88 77 115 123 76 46 344 341 351 23 30 13 356 356 0 341 333 336 338 340 357 340 322 316 306 306 309 307 303 299 301 293 287 283 294 298 294 294 284 265 268 269 265 277 278 254 259 257 257 252 256 259 259 263 259 260 261 251
81 78 84 90 89 113 148 165 76 38 329 322 353 16 354 333 318 302 323 326 324 326 342 344 341 312 306 296 293 292 283 283 298 299 300 293 281 285 288 285 283 286 287 283 275 274 263 274 281 259 254 253 250 245 247 250 256 261 268 263 264 272
120 128 130 157 149 80 105 113 58 348 318 315 1 323 299 299 313 326 323 325 336 341 335 331 323 311 289 266 267 272 277 275 274 285 292 294 296 294 294 291 289 287 287 287 277 276 273 258 274 274 250 254 248 247 244 252 249 260 266 268 266 262
87 58 9 324 38 71 110 122 86 275 292 327 296 276 270 301 314 316 329 340 342 336 329 326 320 314 307 304 302 295 283 271 266 267 274 280 289 297 295 296 295 292 291 293 285 279 279 268 249 268 258 246 244 239 239 246 252 247 259 264 265 262
99 100 263 289 320 343 3 94 318 278 266 291 266 261 274 292 308 323 353 351 335 326 321 319 319 313 315 308 304 303 300 296 291 281 267 276 283 281 285 287 287 290 294 296 292 281 277 275 265 248 254 245 239 237 236 239 247 248 246 257 265 264
142 158 256 275 291 298 303 18 292 275 286 273 270 279 298 319 333 16 359 334 319 312 311 308 307 304 302 299 297 295 294 302 301 294 284 278 283 296 298 294 285 287 291 297 299 297 281 270 267 254 244 246 239 237 237 239 242 245 245 249 262 272
190 176 264 280 268 270 267 256 250 274 276 261 268 288 300 315 341 355 323 307 299 299 292 295 292 289 285 284 289 301 303 302 306 309 302 292 296 292 294 294 297 288 292 297 294 299 298 284 271 273 250 244 244 241 240 241 242 244 246 253 260 262
126 3 276 303 288 286 279 277 239 256 253 265 281 284 305 325 332 321 307 295 292 292 291 292 282 272 274 275 273 269 272 280 294 294 294 285 276 278 279 288 292 286 281 282 288 289 292 298 294 283 270 251 252 247 243 241 242 245 246 248 261 264
331 294 291 308 295 294 289 286 281 255 272 286 287 304 320 332 320 311 313 316 313 311 307 304 304 299 285 279 274 265 267 272 279 282 286 285 289 288 283 280 285 289 284 285 287 289 294 292 291 285 284 271 262 252 240 241 251 252 258 264 266 270
306 299 308 300 277 293 293 284 278 277 279 283 292 298 318 315 301 295 299 299 299 295 288 288 285 288 294 285 284 292 287 268 264 278 278 286 284 291 290 288 284 279 283 288 287 293 295 292 290 280 278 278 262 264 243 236 240 241 235 253 260 260
294 284 305 296 293 301 302 292 280 278 276 274 281 284 291 285 283 282 286 288 290 294 285 285 291 296 299 301 286 260 253 275 274 260 270 245 225 238 253 276 269 267 264 261 272 285 291 289 287 276 217 227 229 256 280 270 251 243 245 239 252 270
259 276 278 278 279 282 280 279 275 272 260 258 261 266 271 277 286 298 297 298 307 308 314 314 311 307 301 297 300 301 289 234 234 253 255 280 242 223 238 234 253 260 258 266 264 233 248 271 274 286 285 287 287 283 276 270 266 255 251 251 250 252
255 252 263 265 264 260 256 260 263 266 271 255 256 258 262 271 287 290 295 305 307 307 308 308 307 307 301 300 302 304 303 311 278 229 245 253 257 256 247 246 250 255 254 248 272 266 239 255 271 277 278 281 281 279 276 272 267 262 257 254 265 266
281 266 252 238 232 240 247 256 267 255 261 259 256 252 254 263 273 285 286 290 292 299 297 292 294 299 301 296 289 283 296 296 305 305 243 230 264 260 248 254 256 255 256 251 246 258 279 261 259 272 275 272 274 274 271 269 265 259 252 249 238 256
300 309 314 321 309 304 281 267 272 270 269 267 263 255 253 257 258 270 282 288 294 295 294 293 289 287 285 292 294 294 285 292 301 300 310 304 233 254 273 263 254 254 255 253 250 249 250 263 268 266 273 274 272 273 273 271 266 258 250 246 243 246
351 338 334 327 323 317 308 292 274 267 263 259 259 250 244 252 253 260 270 285 288 291 291 287 281 282 285 278 283 287 290 289 283 292 296 299 312 307 268 249 246 249 252 251 251 251 254 257 262 265 265 267 268 268 269 268 266 259 247 234 246 244
329 324 319 316 314 314 311 300 288 275 268 263 262 266 272 273 273 276 276 277 281 279 282 284 280 283 284 289 288 290 292 288 289 286 284 292 294 294 298 306 294 245 228 250 254 250 250 254 257 259 261 262 262 263 265 272 274 267 252 235 237 245
328 318 316 313 307 304 301 299 291 298 326 327 315 305 290 284 281 282 284 286 283 283 283 284 286 286 288 292 289 290 285 286 288 283 283 282 276 278 288 294 287 288 272 255 258 254 254 257 255 256 255 255 254 254 254 261 259 260 255 245 241 238